Regional Weather Roundup
Issued by NWS Goodland, KS

Home | Current Version | Previous Version | Graphics & Text | Print | Product List | Glossary On
Versions: 1 2 3 4 5 6 7 8 9 10 11 12 13 14 15 16 17 18 19 20 21 22 23 24 25 26 27 28 29 30 31 32 33 34 35 36 37 38 39 40 41 42 43 44 45 46 47 48 49 50
000
ASUS43 KGLD 291208
RWRGLD

GOODLAND FORECAST AREA HOURLY WEATHER ROUNDUP
NATIONAL WEATHER SERVICE GOODLAND KS
500 AM MST THU JAN 29 2015

...OFFICIAL OBSERVATIONS...

CITY           SKY/WX    TMP DP  RH WIND       PRES   REMARKS
GOODLAND KS    PTCLDY    31  26  82 N16       30.38R WCI  20
HILL CITY KS   CLEAR     32  26  78 NW9       30.36R
IMPERIAL NEB   CLEAR     29  24  82 NW13      30.40R WCI  19
MCCOOK NEB     CLEAR     29  24  82 W8        30.38R
AKRON CO       CLOUDY    36  24  62 NW13      30.41R
BURLINGTON CO  CLOUDY    34  28  79 N12       30.38R
LIMON CO       CLOUDY    34  26  72 NW12      30.41R
$$

...UNOFFICIAL OBSERVATIONS...

CITY           SKY/WX    TMP DP  RH WIND       PRES   REMARKS
COLBY KS       CLEAR     30  30 100 NW13      30.40R
GOVE KS          N/A     33  32  96 MISG        N/A
NORTON KS      CLEAR     30  21  69 NW14      30.33R WCI  20
SHARON SPRINGS   N/A     35  28  76 N13G20      N/A
KIT CARSON CO    N/A     37  28  71 MISG        N/A
YUMA CO          N/A     35  27  73 NW15        N/A
$$


USA.gov is the U.S. government's official web portal to all federal, state and local government web resources and services.